weather.gov     
National Weather Service

Terminal Aerodrome Forecast
NWS Homepage
This page is being discontinued on March 12, 2014.
The same data is available at this site. Please update your bookmarks.
Thank you, and we apologize for the inconvenience.
Please send an email to SR-SRH.Webmaster@noaa.gov with any concerns.


Current Version
Previous Version:    01  02  03  04  05  06  07  08  09  10  11  12  13  14  15  16  17  18  19  20  21  22  23  24  25  26  27  28  29  
[Printable]
127
FTUS45 KBOI 222328
TAFBNO
TAF
KBNO 222328Z 2300/2324 17010KT P6SM BKN060 OVC090
     FM230200 VRB05KT P6SM SCT060 OVC100
     FM230800 23006KT P6SM VCSH SCT060 OVC100
      TEMPO 2311/2315 -SHRA BKN050
     FM231700 23012KT P6SM -SHRA OVC050
     FM232100 23013KT P6SM VCSH BKN050 OVC090=


127
FTUS45 KBOI 222328
TAFBNO
TAF
KBNO 222328Z 2300/2324 17010KT P6SM BKN060 OVC090
     FM230200 VRB05KT P6SM SCT060 OVC100
     FM230800 23006KT P6SM VCSH SCT060 OVC100
      TEMPO 2311/2315 -SHRA BKN050
     FM231700 23012KT P6SM -SHRA OVC050
     FM232100 23013KT P6SM VCSH BKN050 OVC090=




U.S. Dept. of Commerce
NOAA National Weather Service
1325 East West Highway
Silver Spring, MD 20910
E-mail: w-nws.webmaster@noaa.gov
Page last modified: May 16, 2007
NATIONAL WEATHER SERVICE: for Safety, for Work, for Fun - FOR LIFE